CW5456 Weather Reports


Display with metric or nautical units.
time (UTC)temp
F
wind
direction
speed
MPH
gust
MPH
rain 1hr
in
rain 24hr
in
rain mn
in
humidity
%
barometer
mb
20170820034959 58 301 12.0 14.0 0.00 0.00 0.00 82 1020.0
20170820033959 58 332 14.0 15.0 0.00 0.00 0.00 82 1020.1
20170820033031 58 347 12.0 16.0 0.00 0.00 0.00 82 1019.9
20170820032028 58 301 11.0 14.0 0.00 0.00 0.00 83 1019.9
20170820031001 58 349 12.0 15.0 0.00 0.00 0.00 84 1020.0
20170820030030 58 12 9.0 10.0 0.00 0.00 0.00 85 1020.0
20170820024957 59 351 8.0 11.0 0.00 0.00 0.00 84 1019.9
20170820024027 59 10 9.0 9.0 0.00 0.00 0.00 84 1020.0
20170820023027 59 5 3.0 12.0 0.00 0.00 0.00 85 1020.0
20170820022027 59 345 11.0 11.0 0.00 0.00 0.00 86 1020.0
20170820021029 59 337 4.0 7.0 0.00 0.00 0.00 86 1020.0
20170820020029 59 222 0.0 4.0 0.00 0.00 0.00 86 1019.9
20170820015025 59 231 1.0 7.0 0.00 0.00 0.00 86 1019.8
20170820014025 59 308 1.0 8.0 0.00 0.00 0.00 86 1019.8
20170820013024 59 272 0.0 7.0 0.00 0.00 0.00 85 1019.9
20170820012024 59 253 0.0 4.0 0.00 0.00 0.00 84 1019.9
20170820011024 59 314 0.0 6.0 0.00 0.00 0.00 84 1020.0
20170820010024 59 245 2.0 10.0 0.00 0.00 0.00 83 1020.2
20170820005023 60 327 2.0 5.0 0.00 0.00 0.00 82 1020.2
20170820004024 60 299 4.0 8.0 0.00 0.00 0.00 81 1020.2
20170820003023 60 293 6.0 11.0 0.00 0.00 0.00 81 1020.4
20170820002027 60 271 10.0 12.0 0.00 0.00 0.00 81 1020.3
20170820001022 61 272 9.0 10.0 0.00 0.00 0.00 80 1020.2
20170820000022 61 251 2.0 5.0 0.00 0.00 0.00 81 1020.3
20170819235022 60 222 2.0 7.0 0.00 0.00 0.00 81 1020.4
20170819234025 60 249 3.0 12.0 0.00 0.00 0.00 82 1020.5
20170819233021 59 277 7.0 12.0 0.00 0.00 0.00 83 1020.5
20170819232021 59 225 10.0 12.0 0.00 0.00 0.00 84 1020.5
20170819231020 60 259 8.0 11.0 0.00 0.00 0.00 83 1020.5
20170819230020 60 221 3.0 11.0 0.00 0.00 0.00 83 1020.6
20170819225020 60 291 8.0 11.0 0.00 0.00 0.00 84 1020.6
20170819224020 59 258 6.0 11.0 0.00 0.00 0.00 84 1020.7
20170819223019 59 243 7.0 12.0 0.00 0.00 0.00 84 1020.8
20170819222019 59 269 4.0 10.0 0.00 0.00 0.00 85 1020.9
20170819221019 59 248 9.0 12.0 0.00 0.00 0.00 85 1020.9
20170819220018 59 269 9.0 10.0 0.00 0.00 0.00 84 1021.0
20170819215021 60 298 3.0 10.0 0.00 0.00 0.00 84 1021.0
20170819214017 60 251 2.0 8.0 0.00 0.00 0.00 84 1021.1
20170819213017 59 237 3.0 10.0 0.00 0.00 0.00 85 1021.1
20170819212017 59 327 4.0 6.0 0.00 0.00 0.00 85 1021.3
20170819211017 59 233 6.0 8.0 0.00 0.00 0.00 86 1021.4
20170819210016 59 301 5.0 9.0 0.00 0.00 0.00 86 1021.5
20170819205016 59 266 7.0 9.0 0.00 0.00 0.00 86 1021.4
20170819204016 59 313 6.0 8.0 0.00 0.00 0.00 85 1021.5
20170819203016 60 327 3.0 5.0 0.00 0.00 0.00 83 1021.6
20170819202018 60 332 2.0 4.0 0.00 0.00 0.00 84 1021.6
20170819201015 60 332 2.0 5.0 0.00 0.00 0.00 84 1021.7
20170819200014 60 332 4.0 5.0 0.00 0.00 0.00 83 1021.7
20170819195014 61 332 3.0 6.0 0.00 0.00 0.00 83 1021.7
20170819194014 61 350 4.0 5.0 0.00 0.00 0.00 82 1021.8
20170819193017 62 25 2.0 3.0 0.00 0.00 0.00 82 1021.8
20170819192016 62 25 2.0 3.0 0.00 0.00 0.00 80 1021.8
20170819191013 62 25 3.0 3.0 0.00 0.00 0.00 80 1021.9
20170819190013 63 25 2.0 3.0 0.00 0.00 0.00 79 1021.9
20170819185015 62 25 3.0 4.0 0.00 0.00 0.00 81 1022.0
20170819184012 62 25 2.0 3.0 0.00 0.00 0.00 80 1022.1
20170819183012 62 25 3.0 4.0 0.00 0.00 0.00 79 1022.2
20170819182011 62 25 3.0 5.0 0.00 0.00 0.00 79 1022.2
20170819181014 62 17 3.0 3.0 0.00 0.00 0.00 80 1022.1
20170819180015 61 17 2.0 3.0 0.00 0.00 0.00 80 1022.1
20170819175011 61 17 2.0 3.0 0.00 0.00 0.00 80 1022.1
20170819174010 61 17 2.0 3.0 0.00 0.00 0.00 81 1022.1
20170819173010 60 17 2.0 4.0 0.00 0.00 0.00 81 1022.2
20170819172010 60 17 3.0 4.0 0.00 0.00 0.00 82 1022.2
20170819171012 60 17 4.0 5.0 0.00 0.00 0.00 83 1022.1
20170819170009 60 4 5.0 5.0 0.00 0.00 0.00 83 1021.9
20170819165009 59 4 3.0 4.0 0.00 0.00 0.00 84 1021.9
20170819164011 59 4 3.0 5.0 0.00 0.00 0.00 84 1021.8
20170819163008 59 4 5.0 5.0 0.00 0.00 0.00 85 1021.9
20170819162008 59 4 2.0 3.0 0.00 0.00 0.00 85 1021.9
20170819161007 59 4 2.0 3.0 0.00 0.00 0.00 86 1022.0
20170819160008 58 4 2.0 3.0 0.00 0.00 0.00 87 1022.0
20170819155007 58 4 2.0 4.0 0.00 0.00 0.00 88 1022.1
20170819154006 58 4 2.0 4.0 0.00 0.00 0.00 88 1022.1
20170819153006 57 4 2.0 3.0 0.00 0.00 0.00 88 1021.9
20170819152009 57 4 2.0 5.0 0.00 0.00 0.00 89 1021.8
20170819151009 57 4 5.0 6.0 0.00 0.00 0.00 89 1021.8
20170819150011 57 4 4.0 4.0 0.00 0.00 0.00 89 1021.7
20170819145005 56 4 3.0 5.0 0.00 0.00 0.00 89 1021.5
20170819144005 56 353 4.0 4.0 0.00 0.00 0.00 89 1021.4
20170819143005 56 327 0.0 1.0 0.00 0.00 0.00 89 1021.4
20170819142004 56 327 0.0 1.0 0.00 0.00 0.00 89 1021.3
20170819141004 56 327 0.0 3.0 0.00 0.00 0.00 89 1021.2
20170819140003 56 327 0.0 1.0 0.00 0.00 0.00 89 1021.1
20170819135004 56 327 0.0 4.0 0.00 0.00 0.00 89 1021.1
20170819134006 56 327 3.0 5.0 0.00 0.00 0.00 89 1021.1
20170819133003 56 327 5.0 8.0 0.00 0.00 0.00 89 1021.0
20170819132002 56 311 5.0 10.0 0.00 0.00 0.00 89 1020.8
20170819131005 56 332 10.0 10.0 0.00 0.00 0.00 89 1020.8
20170819130005 56 341 8.0 11.0 0.00 0.00 0.00 89 1020.7
20170819125001 56 332 8.0 10.0 0.00 0.00 0.00 89 1020.6
20170819124001 56 344 7.0 9.0 0.00 0.00 0.00 89 1020.5
20170819123001 56 345 7.0 10.0 0.00 0.00 0.00 89 1020.4
20170819122000 56 347 9.0 12.0 0.00 0.00 0.00 89 1020.4
20170819121003 56 343 9.0 12.0 0.00 0.00 0.00 88 1020.3
20170819120000 56 346 11.0 13.0 0.00 0.00 0.00 88 1020.4
20170819114959 56 345 11.0 14.0 0.00 0.00 0.00 89 1020.3
20170819113959 56 337 12.0 13.0 0.00 0.00 0.00 89 1020.2
20170819112959 55 347 7.0 9.0 0.00 0.00 0.00 89 1020.2
20170819111958 55 356 3.0 6.0 0.00 0.00 0.00 88 1020.2
20170819110958 55 21 0.0 3.0 0.00 0.00 0.00 88 1020.2
20170819105958 56 302 0.0 6.0 0.00 0.00 0.00 88 1020.1
20170819105031 56 356 6.0 9.0 0.00 0.00 0.00 88 1020.1
20170819104001 56 332 6.0 9.0 0.00 0.00 0.00 88 1020.0
20170819102957 56 332 8.0 11.0 0.00 0.00 0.00 88 1020.0
20170819101957 56 332 9.0 11.0 0.00 0.00 0.00 88 1019.9
20170819100956 56 349 8.0 10.0 0.00 0.00 0.00 88 1019.8
20170819095956 56 356 4.0 8.0 0.00 0.00 0.00 88 1019.7
20170819095026 56 253 0.0 1.0 0.00 0.00 0.00 88 1019.7
20170819093956 56 253 0.0 3.0 0.00 0.00 0.00 88 1019.8
20170819092955 56 253 0.0 4.0 0.00 0.00 0.00 88 1019.7
20170819092030 57 251 0.0 5.0 0.00 0.00 0.00 88 1019.7
20170819091024 57 341 0.0 3.0 0.00 0.00 0.00 88 1019.7
20170819090027 57 202 0.0 2.0 0.00 0.00 0.00 88 1019.7
20170819085027 57 202 0.0 3.0 0.00 0.00 0.00 87 1019.7
20170819084027 58 154 2.0 3.0 0.00 0.00 0.00 87 1019.6
20170819083023 58 154 0.0 1.0 0.00 0.00 0.00 87 1019.6
20170819082023 58 154 0.0 3.0 0.00 0.00 0.00 87 1019.5
20170819081023 58 154 2.0 3.0 0.00 0.00 0.00 87 1019.7
20170819080022 58 272 0.0 0.0 0.00 0.00 0.00 87 1019.6
20170819074022 58 273 0.0 4.0 0.00 0.00 0.00 88 1019.6
20170819073021 58 239 3.0 8.0 0.00 0.00 0.00 88 1019.5
20170819072021 58 342 4.0 9.0 0.00 0.00 0.00 88 1019.5
20170819071021 58 246 6.0 10.0 0.00 0.00 0.00 88 1019.5
20170819070024 58 332 4.0 9.0 0.00 0.00 0.00 88 1019.5
20170819065021 58 351 5.0 9.0 0.00 0.00 0.00 88 1019.5
20170819064020 58 341 7.0 12.0 0.00 0.00 0.00 88 1019.4
20170819063020 59 357 6.0 11.0 0.00 0.00 0.00 88 1019.4
20170819062035 59 346 4.0 6.0 0.00 0.00 0.00 88 1019.3
20170819061019 59 276 3.0 13.0 0.00 0.00 0.00 88 1019.2
20170819060019 58 332 9.0 11.0 0.00 0.00 0.00 88 1019.3
20170819055018 59 10 5.0 11.0 0.00 0.00 0.00 87 1019.3
20170819054021 59 303 4.0 13.0 0.00 0.00 0.00 87 1019.2
20170819053018 59 227 9.0 14.0 0.00 0.00 0.00 87 1019.3
20170819052017 60 347 8.0 9.0 0.00 0.00 0.00 87 1019.2
20170819051017 59 271 1.0 14.0 0.00 0.00 0.00 88 1019.2
20170819050017 59 280 5.0 16.0 0.00 0.00 0.00 88 1019.2
20170819045017 60 278 11.0 14.0 0.00 0.00 0.00 88 1019.1
20170819044016 60 233 3.0 18.0 0.00 0.00 0.00 88 1018.9
20170819043016 60 285 18.0 19.0 0.00 0.00 0.00 88 1019.1
20170819042016 60 0 5.0 11.0 0.00 0.00 0.00 88 1019.0
20170819041018 60 2 10.0 13.0 0.00 0.00 0.00 88 1019.1
20170819040015 60 6 9.0 12.0 0.00 0.00 0.00 87 1019.1